EW1107 Weather Reports


Display with metric or nautical units.
time (UTC)temp
F
wind
direction
speed
MPH
gust
MPH
rain 1hr
in
rain 24hr
in
rain mn
in
humidity
%
barometer
mb
20200808151754 90 46 7.0 17.0 0.00 0.00 0.00 42 1018.6
20200808150137 89 141 8.0 17.0 0.00 0.00 0.00 44 1018.7
20200808144610 90 62 9.0 19.0 0.00 0.00 0.00 43 1018.8
20200808143106 90 12 8.0 19.0 0.00 0.00 0.00 41 1018.9
20200808141613 91 78 12.0 21.0 0.00 0.00 0.00 42 1018.9
20200808140102 90 28 13.0 21.0 0.00 0.00 0.00 42 1018.9
20200808134555 91 346 8.0 22.0 0.00 0.00 0.00 43 1019.0
20200808133203 91 32 3.0 17.0 0.00 0.00 0.00 41 1019.1
20200808130109 91 66 9.0 17.0 0.00 0.00 0.00 43 1019.4
20200808124616 90 28 8.0 20.0 0.00 0.00 0.00 42 1019.5
20200808123022 92 32 3.0 20.0 0.00 0.00 0.00 41 1019.5
20200808121543 91 360 11.0 21.0 0.00 0.00 0.00 42 1019.6
20200808120021 91 49 7.0 16.0 0.00 0.00 0.00 40 1019.8
20200808114520 90 289 3.0 9.0 0.00 0.00 0.00 41 1019.9
20200808113020 91 150 3.0 13.0 0.00 0.00 0.00 44 1020.0
20200808111521 89 63 4.0 15.0 0.00 0.00 0.00 47 1020.2
20200808110014 88 28 3.0 13.0 0.00 0.00 0.00 48 1020.3
20200808104522 88 77 3.0 10.0 0.00 0.00 0.00 48 1020.4
20200808103003 90 76 5.0 11.0 0.00 0.00 0.00 46 1020.5
20200808101642 88 115 1.0 14.0 0.00 0.00 0.00 49 1020.4
20200808100204 84 94 2.0 9.0 0.00 0.00 0.00 52 1020.5
20200808094800 86 95 3.0 7.0 0.00 0.00 0.00 52 1020.6
20200808093129 86 123 1.0 15.0 0.00 0.00 0.00 50 1020.7
20200808091713 87 54 6.0 22.0 0.00 0.00 0.00 50 1020.7
20200808090120 87 128 5.0 13.0 0.00 0.00 0.00 49 1020.8
20200808084601 87 41 7.0 19.0 0.00 0.00 0.00 52 1020.8
20200808083044 86 145 5.0 20.0 0.00 0.00 0.00 55 1020.9
20200808081543 86 77 4.0 10.0 0.00 0.00 0.00 55 1021.0
20200808080104 84 163 3.0 15.0 0.00 0.00 0.00 57 1021.1
20200808074535 85 109 5.0 11.0 0.00 0.00 0.00 58 1021.1
20200808073058 83 129 2.0 10.0 0.00 0.00 0.00 61 1021.1
20200808071607 83 158 4.0 9.0 0.00 0.00 0.00 61 1021.2
20200808070024 81 129 3.0 9.0 0.00 0.00 0.00 64 1021.4
20200808064513 80 143 4.0 11.0 0.00 0.00 0.00 66 1021.4
20200808063021 79 114 5.0 11.0 0.00 0.00 0.00 68 1021.4
20200808061505 78 148 6.0 12.0 0.00 0.00 0.00 69 1021.4
20200808060156 78 149 5.0 12.0 0.00 0.00 0.00 69 1021.5
20200808054613 77 147 4.0 11.0 0.00 0.00 0.00 70 1021.4
20200808053125 76 138 4.0 11.0 0.00 0.00 0.00 72 1021.4
20200808051609 76 120 2.0 7.0 0.00 0.00 0.00 73 1021.4
20200808050057 75 124 2.0 7.0 0.00 0.00 0.00 75 1021.4
20200808044643 73 78 1.0 5.0 0.00 0.00 0.00 77 1021.3
20200808043059 71 78 0.0 3.0 0.00 0.00 0.00 81 1021.3
20200808040028 69 78 0.0 4.0 0.00 0.00 0.00 81 1021.1
20200808034549 69 76 0.0 1.0 0.00 0.00 0.00 81 1021.1
20200808033100 69 76 0.0 2.0 0.00 0.00 0.00 81 1021.0
20200808031523 69 73 0.0 6.0 0.00 0.00 0.00 81 1021.0
20200808030033 69 73 0.0 4.0 0.00 0.00 0.00 80 1020.9
20200808024618 69 73 1.0 6.0 0.00 0.00 0.00 80 1020.9
20200808023037 69 73 0.0 4.0 0.00 0.00 0.00 79 1021.0
20200808021549 69 73 2.0 5.0 0.00 0.00 0.00 79 1020.9
20200808020010 69 60 2.0 6.0 0.00 0.00 0.00 78 1020.9
20200808014505 70 65 1.0 5.0 0.00 0.00 0.00 77 1021.0
20200808011722 71 81 1.0 3.0 0.00 0.00 0.00 75 1021.0
20200808010132 71 79 0.0 4.0 0.00 0.00 0.00 74 1021.0
20200808004706 71 68 2.0 6.0 0.00 0.00 0.00 74 1021.1
20200808003141 71 68 2.0 6.0 0.00 0.00 0.00 72 1021.1
20200808001636 72 65 3.0 8.0 0.00 0.00 0.00 72 1021.2
20200808000142 72 77 4.0 9.0 0.00 0.00 0.00 71 1021.3
20200807234731 72 53 4.0 9.0 0.00 0.00 0.00 71 1021.2
20200807233201 72 67 4.0 11.0 0.00 0.00 0.00 70 1021.2
20200807231702 72 65 4.0 7.0 0.00 0.00 0.00 70 1021.3
20200807230141 73 61 3.0 10.0 0.00 0.00 0.00 70 1021.3
20200807224711 73 66 3.0 6.0 0.00 0.00 0.00 70 1021.3
20200807223124 73 71 2.0 8.0 0.00 0.00 0.00 70 1021.3
20200807221651 73 80 2.0 5.0 0.00 0.00 0.00 70 1021.3
20200807220115 73 52 2.0 6.0 0.00 0.00 0.00 69 1021.3
20200807214544 74 59 1.0 6.0 0.00 0.00 0.00 69 1021.3
20200807213140 74 61 2.0 6.0 0.00 0.00 0.00 68 1021.3
20200807211630 75 60 3.0 6.0 0.00 0.00 0.00 67 1021.3
20200807210103 75 72 2.0 6.0 0.00 0.00 0.00 66 1021.3
20200807204618 76 61 1.0 6.0 0.00 0.00 0.00 65 1021.3
20200807203057 76 28 3.0 10.0 0.00 0.00 0.00 64 1021.2
20200807201624 76 63 4.0 12.0 0.00 0.00 0.00 64 1021.3
20200807194712 76 89 3.0 7.0 0.00 0.00 0.00 66 1021.2
20200807193123 77 80 2.0 6.0 0.00 0.00 0.00 65 1021.2
20200807191637 78 80 1.0 5.0 0.00 0.00 0.00 64 1021.2
20200807190119 78 71 1.0 6.0 0.00 0.00 0.00 62 1021.2
20200807184604 79 70 1.0 6.0 0.00 0.00 0.00 60 1021.2
20200807183128 80 69 1.0 6.0 0.00 0.00 0.00 58 1021.2
20200807181548 82 73 3.0 11.0 0.00 0.00 0.00 55 1021.1
20200807180108 83 73 4.0 11.0 0.00 0.00 0.00 53 1021.1
20200807174618 84 78 3.0 14.0 0.00 0.00 0.00 51 1021.0
20200807173119 84 32 5.0 15.0 0.00 0.00 0.00 49 1020.9
20200807171616 85 65 4.0 13.0 0.00 0.00 0.00 49 1021.0
20200807170044 86 82 2.0 15.0 0.00 0.00 0.00 48 1021.0
20200807164523 86 74 8.0 16.0 0.00 0.00 0.00 46 1021.0
20200807163051 86 65 9.0 17.0 0.00 0.00 0.00 44 1021.0
20200807161523 87 36 10.0 21.0 0.00 0.00 0.00 44 1021.0
20200807160120 87 59 8.0 20.0 0.00 0.00 0.00 43 1021.1
20200807154522 88 45 6.0 22.0 0.00 0.00 0.00 40 1021.2
20200807153035 89 54 8.0 19.0 0.00 0.00 0.00 42 1021.3